#Datum;Uhrzeit;WR;Pac;DaySum;Status;WR;Pac;DaySum;Status;Pdc1;Udc;Temp;WR;Pac;DaySum;Status;Pdc1;Udc;Temp;WR;Pac;DaySum;Status;Pdc1;Udc;Temp;WR;Pac;DaySum;Status;Pdc1;Pdc2;Udc1;Udc2;Temp;WR;Pac;DaySum;Status;Pdc1;Pdc2;Udc1;Udc2;Temp;WR;Pac;DaySum;Status;Pdc1;Udc;Temp;WR;Pac;DaySum;Status;Pdc1;Udc;Temp;WR;Pac;DaySum;Status;Pdc1;Udc;Temp
20.02.18;23:55:00;1;281;20330;0;2;0;6790;0;0;0;0;3;0;4286;0;0;0;0;4;0;6674;0;0;0;0;5;0;14975;0;0;0;0;0;0;6;0;10782;0;0;0;0;0;0;7;0;10390;0;0;0;0;8;0;9936;0;0;0;0;9;0;5375;0;0;0;0
20.02.18;23:50:00;1;204;20307;0;2;0;6790;0;0;0;0;3;0;4286;0;0;0;0;4;0;6674;0;0;0;0;5;0;14975;0;0;0;0;0;0;6;0;10782;0;0;0;0;0;0;7;0;10390;0;0;0;0;8;0;9936;0;0;0;0;9;0;5375;0;0;0;0
20.02.18;23:45:00;1;204;20290;0;2;0;6790;0;0;0;0;3;0;4286;0;0;0;0;4;0;6674;0;0;0;0;5;0;14975;0;0;0;0;0;0;6;0;10782;0;0;0;0;0;0;7;0;10390;0;0;0;0;8;0;9936;0;0;0;0;9;0;5375;0;0;0;0
20.02.18;23:40:00;1;224;20273;0;2;0;6790;0;0;0;0;3;0;4286;0;0;0;0;4;0;6674;0;0;0;0;5;0;14975;0;0;0;0;0;0;6;0;10782;0;0;0;0;0;0;7;0;10390;0;0;0;0;8;0;9936;0;0;0;0;9;0;5375;0;0;0;0
20.02.18;23:35:00;1;260;20254;0;2;0;6790;0;0;0;0;3;0;4286;0;0;0;0;4;0;6674;0;0;0;0;5;0;14975;0;0;0;0;0;0;6;0;10782;0;0;0;0;0;0;7;0;10390;0;0;0;0;8;0;9936;0;0;0;0;9;0;5375;0;0;0;0
20.02.18;23:30:00;1;264;20232;0;2;0;6790;0;0;0;0;3;0;4286;0;0;0;0;4;0;6674;0;0;0;0;5;0;14975;0;0;0;0;0;0;6;0;10782;0;0;0;0;0;0;7;0;10390;0;0;0;0;8;0;9936;0;0;0;0;9;0;5375;0;0;0;0
20.02.18;23:25:00;1;234;20210;0;2;0;6790;0;0;0;0;3;0;4286;0;0;0;0;4;0;6674;0;0;0;0;5;0;14975;0;0;0;0;0;0;6;0;10782;0;0;0;0;0;0;7;0;10390;0;0;0;0;8;0;9936;0;0;0;0;9;0;5375;0;0;0;0
20.02.18;23:20:00;1;208;20191;0;2;0;6790;0;0;0;0;3;0;4286;0;0;0;0;4;0;6674;0;0;0;0;5;0;14975;0;0;0;0;0;0;6;0;10782;0;0;0;0;0;0;7;0;10390;0;0;0;0;8;0;9936;0;0;0;0;9;0;5375;0;0;0;0
20.02.18;23:15:00;1;211;20174;0;2;0;6790;0;0;0;0;3;0;4286;0;0;0;0;4;0;6674;0;0;0;0;5;0;14975;0;0;0;0;0;0;6;0;10782;0;0;0;0;0;0;7;0;10390;0;0;0;0;8;0;9936;0;0;0;0;9;0;5375;0;0;0;0
20.02.18;23:10:00;1;230;20156;0;2;0;6790;0;0;0;0;3;0;4286;0;0;0;0;4;0;6674;0;0;0;0;5;0;14975;0;0;0;0;0;0;6;0;10782;0;0;0;0;0;0;7;0;10390;0;0;0;0;8;0;9936;0;0;0;0;9;0;5375;0;0;0;0
20.02.18;23:05:00;1;258;20136;0;2;0;6790;0;0;0;0;3;0;4286;0;0;0;0;4;0;6674;0;0;0;0;5;0;14975;0;0;0;0;0;0;6;0;10782;0;0;0;0;0;0;7;0;10390;0;0;0;0;8;0;9936;0;0;0;0;9;0;5375;0;0;0;0
20.02.18;23:00:00;1;266;20115;0;2;0;6790;0;0;0;0;3;0;4286;0;0;0;0;4;0;6674;0;0;0;0;5;0;14975;0;0;0;0;0;0;6;0;10782;0;0;0;0;0;0;7;0;10390;0;0;0;0;8;0;9936;0;0;0;0;9;0;5375;0;0;0;0
20.02.18;22:55:00;1;330;20093;0;2;0;6790;0;0;0;0;3;0;4286;0;0;0;0;4;0;6674;0;0;0;0;5;0;14975;2;0;0;0;0;0;6;0;10782;2;0;0;0;0;0;7;0;10390;0;0;0;0;8;0;9936;0;0;0;0;9;0;5375;0;0;0;0
20.02.18;22:50:00;1;405;20063;0;2;0;6790;0;0;0;0;3;0;4286;0;0;0;0;4;0;6674;0;0;0;0;5;0;14975;2;0;0;0;0;0;6;0;10782;2;0;0;0;0;0;7;0;10390;0;0;0;0;8;0;9936;0;0;0;0;9;0;5375;0;0;0;0
20.02.18;22:45:00;1;391;20029;0;2;0;6790;0;0;0;0;3;0;4286;0;0;0;0;4;0;6674;0;0;0;0;5;0;14975;2;0;0;0;0;0;6;0;10782;2;0;0;0;0;0;7;0;10390;0;0;0;0;8;0;9936;0;0;0;0;9;0;5375;0;0;0;0
20.02.18;22:40:00;1;462;19996;0;2;0;6790;0;0;0;0;3;0;4286;0;0;0;0;4;0;6674;0;0;0;0;5;0;14975;2;0;0;0;0;0;6;0;10782;2;0;0;0;0;0;7;0;10390;0;0;0;0;8;0;9936;0;0;0;0;9;0;5375;0;0;0;0
20.02.18;22:35:00;1;463;19958;0;2;0;6790;0;0;0;0;3;0;4286;0;0;0;0;4;0;6674;0;0;0;0;5;0;14975;2;0;0;0;0;0;6;0;10782;2;0;0;0;0;0;7;0;10390;0;0;0;0;8;0;9936;0;0;0;0;9;0;5375;0;0;0;0
20.02.18;22:30:00;1;451;19919;0;2;0;6790;0;0;0;0;3;0;4286;0;0;0;0;4;0;6674;0;0;0;0;5;0;14975;2;0;0;0;0;0;6;0;10782;2;0;0;0;0;0;7;0;10390;0;0;0;0;8;0;9936;0;0;0;0;9;0;5375;0;0;0;0
20.02.18;22:25:00;1;442;19881;0;2;0;6790;0;0;0;0;3;0;4286;0;0;0;0;4;0;6674;0;0;0;0;5;0;14975;2;0;0;0;0;0;6;0;10782;2;0;0;0;0;0;7;0;10390;0;0;0;0;8;0;9936;0;0;0;0;9;0;5375;0;0;0;0
20.02.18;22:20:00;1;449;19843;0;2;0;6790;0;0;0;0;3;0;4286;0;0;0;0;4;0;6674;0;0;0;0;5;0;14975;2;0;0;0;0;0;6;0;10782;2;0;0;0;0;0;7;0;10390;0;0;0;0;8;0;9936;0;0;0;0;9;0;5375;0;0;0;0
20.02.18;22:15:00;1;451;19806;0;2;0;6790;0;0;0;0;3;0;4286;0;0;0;0;4;0;6674;0;0;0;0;5;0;14975;2;0;0;0;0;0;6;0;10782;2;0;0;0;0;0;7;0;10390;0;0;0;0;8;0;9936;0;0;0;0;9;0;5375;0;0;0;0
20.02.18;22:10:00;1;448;19768;0;2;0;6790;0;0;0;0;3;0;4286;0;0;0;0;4;0;6674;0;0;0;0;5;0;14975;2;0;0;0;0;0;6;0;10782;2;0;0;0;0;0;7;0;10390;0;0;0;0;8;0;9936;0;0;0;0;9;0;5375;0;0;0;0
20.02.18;22:05:00;1;450;19731;0;2;0;6790;0;0;0;0;3;0;4286;0;0;0;0;4;0;6674;0;0;0;0;5;0;14975;2;0;0;0;0;0;6;0;10782;2;0;0;0;0;0;7;0;10390;0;0;0;0;8;0;9936;0;0;0;0;9;0;5375;0;0;0;0
20.02.18;22:00:00;1;458;19693;0;2;0;6790;0;0;0;0;3;0;4286;0;0;0;0;4;0;6674;0;0;0;0;5;0;14975;2;0;0;0;0;0;6;0;10782;2;0;0;0;0;0;7;0;10390;0;0;0;0;8;0;9936;0;0;0;0;9;0;5375;0;0;0;0
20.02.18;21:55:00;1;419;19655;0;2;0;6790;0;0;0;0;3;0;4286;0;0;0;0;4;0;6674;0;0;0;0;5;0;14975;2;0;0;0;0;0;6;0;10782;2;0;0;0;0;0;7;0;10390;0;0;0;0;8;0;9936;0;0;0;0;9;0;5375;0;0;0;0
20.02.18;21:50:00;1;472;19619;0;2;0;6790;0;0;0;0;3;0;4286;0;0;0;0;4;0;6674;0;0;0;0;5;0;14975;2;0;0;0;0;0;6;0;10782;2;0;0;0;0;0;7;0;10390;0;0;0;0;8;0;9936;0;0;0;0;9;0;5375;0;0;0;0
20.02.18;21:45:00;1;484;19580;0;2;0;6790;0;0;0;0;3;0;4286;0;0;0;0;4;0;6674;0;0;0;0;5;0;14975;2;0;0;0;0;0;6;0;10782;2;0;0;0;0;0;7;0;10390;0;0;0;0;8;0;9936;0;0;0;0;9;0;5375;0;0;0;0
20.02.18;21:40:00;1;478;19540;0;2;0;6790;0;0;0;0;3;0;4286;0;0;0;0;4;0;6674;0;0;0;0;5;0;14975;2;0;0;0;0;0;6;0;10782;2;0;0;0;0;0;7;0;10390;0;0;0;0;8;0;9936;0;0;0;0;9;0;5375;0;0;0;0
20.02.18;21:35:00;1;458;19500;0;2;0;6790;0;0;0;0;3;0;4286;0;0;0;0;4;0;6674;0;0;0;0;5;0;14975;2;0;0;0;0;0;6;0;10782;2;0;0;0;0;0;7;0;10390;0;0;0;0;8;0;9936;0;0;0;0;9;0;5375;0;0;0;0
20.02.18;21:30:00;1;434;19462;0;2;0;6790;0;0;0;0;3;0;4286;0;0;0;0;4;0;6674;0;0;0;0;5;0;14975;2;0;0;0;0;0;6;0;10782;2;0;0;0;0;0;7;0;10390;0;0;0;0;8;0;9936;0;0;0;0;9;0;5375;0;0;0;0
20.02.18;21:25:00;1;461;19425;0;2;0;6790;0;0;0;0;3;0;4286;0;0;0;0;4;0;6674;0;0;0;0;5;0;14975;2;0;0;0;0;0;6;0;10782;2;0;0;0;0;0;7;0;10390;0;0;0;0;8;0;9936;0;0;0;0;9;0;5375;0;0;0;0
20.02.18;21:20:00;1;437;19387;0;2;0;6790;0;0;0;0;3;0;4286;0;0;0;0;4;0;6674;0;0;0;0;5;0;14975;2;0;0;0;0;0;6;0;10782;2;0;0;0;0;0;7;0;10390;0;0;0;0;8;0;9936;0;0;0;0;9;0;5375;0;0;0;0
20.02.18;21:15:00;1;427;19350;0;2;0;6790;0;0;0;0;3;0;4286;0;0;0;0;4;0;6674;0;0;0;0;5;0;14975;2;0;0;0;0;0;6;0;10782;2;0;0;0;0;0;7;0;10390;0;0;0;0;8;0;9936;0;0;0;0;9;0;5375;0;0;0;0
20.02.18;21:10:00;1;447;19314;0;2;0;6790;0;0;0;0;3;0;4286;0;0;0;0;4;0;6674;0;0;0;0;5;0;14975;2;0;0;0;0;0;6;0;10782;2;0;0;0;0;0;7;0;10390;0;0;0;0;8;0;9936;0;0;0;0;9;0;5375;0;0;0;0
20.02.18;21:05:00;1;437;19276;0;2;0;6790;0;0;0;0;3;0;4286;0;0;0;0;4;0;6674;0;0;0;0;5;0;14975;2;0;0;0;0;0;6;0;10782;2;0;0;0;0;0;7;0;10390;0;0;0;0;8;0;9936;0;0;0;0;9;0;5375;0;0;0;0
20.02.18;21:00:00;1;434;19240;0;2;0;6790;0;0;0;0;3;0;4286;0;0;0;0;4;0;6674;0;0;0;0;5;0;14975;2;0;0;0;0;0;6;0;10782;2;0;0;0;0;0;7;0;10390;0;0;0;0;8;0;9936;0;0;0;0;9;0;5375;0;0;0;0
20.02.18;20:55:00;1;489;19204;0;2;0;6790;0;0;0;0;3;0;4286;0;0;0;0;4;0;6674;0;0;0;0;5;0;14975;2;0;0;0;0;0;6;0;10782;2;0;0;0;0;0;7;0;10390;0;0;0;0;8;0;9936;0;0;0;0;9;0;5375;0;0;0;0
20.02.18;20:50:00;1;545;19161;0;2;0;6790;0;0;0;0;3;0;4286;0;0;0;0;4;0;6674;0;0;0;0;5;0;14975;2;0;0;0;0;0;6;0;10782;2;0;0;0;0;0;7;0;10390;0;0;0;0;8;0;9936;0;0;0;0;9;0;5375;0;0;0;0
20.02.18;20:45:00;1;567;19116;0;2;0;6790;0;0;0;0;3;0;4286;0;0;0;0;4;0;6674;0;0;0;0;5;0;14975;2;0;0;0;0;0;6;0;10782;2;0;0;0;0;0;7;0;10390;0;0;0;0;8;0;9936;0;0;0;0;9;0;5375;0;0;0;0
20.02.18;20:40:00;1;1687;19069;0;2;0;6790;0;0;0;0;3;0;4286;0;0;0;0;4;0;6674;0;0;0;0;5;0;14975;2;0;0;0;0;0;6;0;10782;2;0;0;0;0;0;7;0;10390;0;0;0;0;8;0;9936;0;0;0;0;9;0;5375;0;0;0;0
20.02.18;20:35:00;1;2423;18923;0;2;0;6790;0;0;0;0;3;0;4286;0;0;0;0;4;0;6674;0;0;0;0;5;0;14975;2;0;0;0;0;0;6;0;10782;2;0;0;0;0;0;7;0;10390;0;0;0;0;8;0;9936;0;0;0;0;9;0;5375;0;0;0;0
20.02.18;20:30:00;1;2440;18718;0;2;0;6790;0;0;0;0;3;0;4286;0;0;0;0;4;0;6674;0;0;0;0;5;0;14975;2;0;0;0;0;0;6;0;10782;2;0;0;0;0;0;7;0;10390;0;0;0;0;8;0;9936;0;0;0;0;9;0;5375;0;0;0;0
20.02.18;20:25:00;1;1077;18514;0;2;0;6790;0;0;0;0;3;0;4286;0;0;0;0;4;0;6674;0;0;0;0;5;0;14975;2;0;0;0;0;0;6;0;10782;2;0;0;0;0;0;7;0;10390;0;0;0;0;8;0;9936;0;0;0;0;9;0;5375;0;0;0;0
20.02.18;20:20:00;1;1611;18421;0;2;0;6790;0;0;0;0;3;0;4286;0;0;0;0;4;0;6674;0;0;0;0;5;0;14975;2;0;0;0;0;0;6;0;10782;2;0;0;0;0;0;7;0;10390;0;0;0;0;8;0;9936;0;0;0;0;9;0;5375;0;0;0;0
20.02.18;20:15:00;1;611;18303;0;2;0;6790;0;0;0;0;3;0;4286;0;0;0;0;4;0;6674;0;0;0;0;5;0;14975;2;0;0;0;0;0;6;0;10782;2;0;0;0;0;0;7;0;10390;0;0;0;0;8;0;9936;0;0;0;0;9;0;5375;0;0;0;0
20.02.18;20:10:00;1;460;18251;0;2;0;6790;0;0;0;0;3;0;4286;0;0;0;0;4;0;6674;0;0;0;0;5;0;14975;2;0;0;0;0;0;6;0;10782;2;0;0;0;0;0;7;0;10390;0;0;0;0;8;0;9936;0;0;0;0;9;0;5375;0;0;0;0
20.02.18;20:05:00;1;2221;18200;0;2;0;6790;0;0;0;0;3;0;4286;0;0;0;0;4;0;6674;0;0;0;0;5;0;14975;2;0;0;0;0;0;6;0;10782;2;0;0;0;0;0;7;0;10390;0;0;0;0;8;0;9936;0;0;0;0;9;0;5375;0;0;0;0
20.02.18;20:00:00;1;660;18015;0;2;0;6790;0;0;0;0;3;0;4286;0;0;0;0;4;0;6674;0;0;0;0;5;0;14975;2;0;0;0;0;0;6;0;10782;2;0;0;0;0;0;7;0;10390;0;0;0;0;8;0;9936;0;0;0;0;9;0;5375;0;0;0;0
20.02.18;19:55:00;1;1477;17972;0;2;0;6790;0;0;0;0;3;0;4286;0;0;0;0;4;0;6674;0;0;0;0;5;0;14975;2;0;0;0;0;0;6;0;10782;2;0;0;0;0;0;7;0;10390;0;0;0;0;8;0;9936;0;0;0;0;9;0;5375;0;0;0;0
20.02.18;19:50:00;1;1240;17827;0;2;0;6790;0;0;0;0;3;0;4286;0;0;0;0;4;0;6674;0;0;0;0;5;0;14975;2;0;0;0;0;0;6;0;10782;2;0;0;0;0;0;7;0;10390;0;0;0;0;8;0;9936;0;0;0;0;9;0;5375;0;0;0;0
20.02.18;19:45:00;1;2285;17712;0;2;0;6790;0;0;0;0;3;0;4286;0;0;0;0;4;0;6674;0;0;0;0;5;0;14975;2;0;0;0;0;0;6;0;10782;2;0;0;0;0;0;7;0;10390;0;0;0;0;8;0;9936;0;0;0;0;9;0;5375;0;0;0;0
20.02.18;19:40:00;1;2641;17546;0;2;0;6790;0;0;0;0;3;0;4286;0;0;0;0;4;0;6674;0;0;0;0;5;0;14975;2;0;0;0;0;0;6;0;10782;2;0;0;0;0;0;7;0;10390;0;0;0;0;8;0;9936;0;0;0;0;9;0;5375;0;0;0;0
20.02.18;19:35:00;1;1184;17357;0;2;0;6790;0;0;0;0;3;0;4286;0;0;0;0;4;0;6674;0;0;0;0;5;0;14975;2;0;0;0;0;0;6;0;10782;2;0;0;0;0;0;7;0;10390;0;0;0;0;8;0;9936;0;0;0;0;9;0;5375;0;0;0;0
20.02.18;19:30:00;1;442;17291;0;2;0;6790;0;0;0;0;3;0;4286;0;0;0;0;4;0;6674;0;0;0;0;5;0;14975;2;0;0;0;0;0;6;0;10782;2;0;0;0;0;0;7;0;10390;0;0;0;0;8;0;9936;0;0;0;0;9;0;5375;0;0;0;0
20.02.18;19:25:00;1;514;17253;0;2;0;6790;0;0;0;0;3;0;4286;0;0;0;0;4;0;6674;0;0;0;0;5;0;14975;2;0;0;0;0;0;6;0;10782;2;0;0;0;0;0;7;0;10390;0;0;0;0;8;0;9936;0;0;0;0;9;0;5375;0;0;0;0
20.02.18;19:20:00;1;510;17210;0;2;0;6790;0;0;0;0;3;0;4286;0;0;0;0;4;0;6674;0;0;0;0;5;0;14975;2;0;0;0;0;0;6;0;10782;2;0;0;0;0;0;7;0;10390;0;0;0;0;8;0;9936;0;0;0;0;9;0;5375;0;0;0;0
20.02.18;19:15:00;1;477;17168;0;2;0;6790;0;0;0;0;3;0;4286;0;0;0;0;4;0;6674;0;0;0;0;5;0;14975;2;0;0;0;0;0;6;0;10782;2;0;0;0;0;0;7;0;10390;0;0;0;0;8;0;9936;0;0;0;0;9;0;5375;0;0;0;0
20.02.18;19:10:00;1;520;17128;0;2;0;6790;0;0;0;0;3;0;4286;0;0;0;0;4;0;6674;0;0;0;0;5;0;14975;2;0;0;0;0;0;6;0;10782;2;0;0;0;0;0;7;0;10390;0;0;0;0;8;0;9936;0;0;0;0;9;0;5375;0;0;0;0
20.02.18;19:05:00;1;568;17084;0;2;0;6790;0;0;0;0;3;0;4286;0;0;0;0;4;0;6674;0;0;0;0;5;0;14975;2;0;0;0;0;0;6;0;10782;2;0;0;0;0;0;7;0;10390;0;0;0;0;8;0;9936;0;0;0;0;9;0;5375;0;0;0;0
20.02.18;19:00:00;1;638;17037;0;2;0;6790;0;0;0;0;3;0;4286;0;0;0;0;4;0;6674;0;0;0;0;5;0;14975;2;0;0;0;0;0;6;0;10782;2;0;0;0;0;0;7;0;10390;0;0;0;0;8;0;9936;0;0;0;0;9;0;5375;0;0;0;0
20.02.18;18:55:00;1;644;16983;0;2;0;6790;0;0;0;0;3;0;4286;0;0;0;0;4;0;6674;0;0;0;0;5;0;14975;2;0;0;0;0;0;6;0;10782;2;0;0;0;0;0;7;0;10390;0;0;0;0;8;0;9936;0;0;0;0;9;0;5375;0;0;0;0
20.02.18;18:50:00;1;1133;16930;0;2;0;6790;0;0;0;0;3;0;4286;0;0;0;0;4;0;6674;0;0;0;0;5;0;14975;2;0;0;0;0;0;6;0;10782;2;0;0;0;0;0;7;0;10390;0;0;0;0;8;0;9936;0;0;0;0;9;0;5375;0;0;0;0
20.02.18;18:45:00;1;2338;16826;0;2;0;6790;0;0;0;0;3;0;4286;0;0;0;0;4;0;6674;0;0;0;0;5;0;14975;2;0;0;0;0;0;6;0;10782;2;0;0;0;0;0;7;0;10390;0;0;0;0;8;0;9936;0;0;0;0;9;0;5375;0;0;0;0
20.02.18;18:40:00;1;2663;16637;0;2;0;6790;0;0;0;0;3;0;4286;0;0;0;0;4;0;6674;0;0;0;0;5;0;14975;2;0;0;0;0;0;6;0;10782;2;0;0;0;0;0;7;0;10390;0;0;0;0;8;0;9936;0;0;0;0;9;0;5375;0;0;0;0
20.02.18;18:35:00;1;2566;16414;0;2;0;6790;0;0;0;0;3;0;4286;0;0;0;0;4;0;6674;0;0;0;0;5;0;14975;2;0;0;0;0;0;6;0;10782;2;0;0;0;0;0;7;0;10390;0;0;0;0;8;0;9936;0;0;0;0;9;0;5375;0;0;0;0
20.02.18;18:30:00;1;2565;16200;0;2;0;6790;0;0;0;0;3;0;4286;0;0;0;0;4;0;6674;0;0;0;0;5;0;14975;2;0;0;0;0;0;6;0;10782;2;0;0;0;0;0;7;0;10390;0;0;0;0;8;0;9936;0;0;0;0;9;0;5375;0;0;0;0
20.02.18;18:25:00;1;845;15986;0;2;0;6790;0;0;0;0;3;0;4286;0;0;0;0;4;0;6674;0;0;0;0;5;0;14975;2;0;0;0;0;0;6;0;10782;2;0;0;0;0;0;7;0;10390;0;0;0;0;8;0;9936;0;0;0;0;9;0;5375;0;0;0;0
20.02.18;18:20:00;1;530;15906;0;2;0;6790;0;0;0;0;3;0;4286;0;0;0;0;4;0;6674;0;0;0;0;5;0;14975;2;0;0;0;0;0;6;0;10782;2;0;0;0;0;0;7;0;10390;0;0;0;0;8;0;9936;0;0;0;0;9;0;5375;0;0;0;0
20.02.18;18:15:00;1;927;15859;0;2;0;6790;0;0;0;0;3;0;4286;0;0;0;0;4;0;6674;0;0;0;0;5;0;14975;2;0;0;0;0;0;6;0;10782;2;0;0;0;0;0;7;0;10390;0;0;0;0;8;0;9936;0;0;0;0;9;0;5375;0;0;0;0
20.02.18;18:10:00;1;1010;15781;0;2;0;6790;0;0;0;0;3;0;4286;0;0;0;0;4;0;6674;0;0;0;0;5;0;14975;2;0;0;0;0;0;6;0;10782;2;0;0;0;0;0;7;0;10390;0;0;0;0;8;0;9936;0;0;0;0;9;0;5375;0;0;0;0
20.02.18;18:05:00;1;1079;15697;0;2;0;6790;0;0;0;0;3;0;4286;0;0;0;0;4;0;6674;0;0;0;0;5;0;14975;2;0;0;0;0;0;6;0;10782;2;0;0;0;0;0;7;0;10390;0;0;0;0;8;0;9936;0;0;0;0;9;0;5375;0;0;0;0
20.02.18;18:00:00;1;1019;15607;0;2;0;6790;0;0;0;0;3;0;4286;0;0;0;0;4;0;6674;0;0;0;0;5;0;14975;2;0;0;0;0;0;6;0;10782;2;0;0;0;0;0;7;0;10390;0;0;0;0;8;0;9936;0;0;0;0;9;0;5375;0;0;0;0
20.02.18;17:55:00;1;771;15523;0;2;0;6790;0;0;0;0;3;0;4286;0;0;0;0;4;0;6674;0;0;0;0;5;0;14975;2;0;0;0;0;0;6;0;10782;0;0;0;0;0;0;7;0;10390;0;0;0;0;8;0;9936;0;0;0;0;9;0;5375;0;0;0;0
20.02.18;17:50:00;1;759;15458;0;2;0;6790;0;0;146;5;3;0;4286;0;0;237;10;4;0;6674;0;0;0;0;5;0;14975;2;0;0;0;0;0;6;0;10782;2;0;0;0;0;0;7;0;10390;0;0;0;0;8;0;9936;0;0;0;0;9;0;5375;0;0;0;0
20.02.18;17:45:00;1;757;15395;0;2;0;6790;6;0;287;9;3;0;4286;6;0;308;12;4;0;6674;0;0;0;0;5;0;14975;2;0;0;0;0;0;6;0;10782;0;0;0;0;0;0;7;0;10390;0;0;0;0;8;0;9936;0;0;0;0;9;0;5375;0;0;0;0
20.02.18;17:40:00;1;706;15332;0;2;0;6790;6;0;320;9;3;0;4286;6;0;375;12;4;0;6674;2;0;77;8;5;0;14975;2;0;0;134;132;8;6;0;10782;0;1;1;78;51;5;7;0;10390;0;0;0;0;8;0;9936;0;0;0;0;9;0;5375;0;0;0;0
20.02.18;17:35:00;1;707;15273;0;2;0;6790;6;0;361;9;3;0;4286;6;4;403;13;4;0;6674;1;0;122;8;5;0;14975;23;0;0;389;392;20;6;0;10782;23;4;6;437;250;18;7;0;10390;0;0;162;7;8;0;9936;0;0;160;7;9;0;5375;0;0;226;7
20.02.18;17:30:00;1;690;15214;0;2;0;6790;6;0;389;10;3;0;4286;6;2;467;13;4;0;6674;1;0;172;9;5;6;14975;26;0;7;412;639;20;6;0;10782;23;5;3;181;561;19;7;0;10390;6;0;341;12;8;0;9936;6;0;340;12;9;0;5375;6;0;354;9
20.02.18;17:25:00;1;693;15157;0;2;3;6790;6;5;396;10;3;1;4286;6;3;487;13;4;0;6674;1;0;211;9;5;13;14974;26;2;2;425;669;21;6;0;10782;23;3;5;267;586;19;7;0;10390;6;1;404;12;8;0;9936;6;1;390;12;9;0;5375;6;0;427;9
20.02.18;17:20:00;1;743;15098;0;2;2;6789;6;7;410;10;3;2;4286;6;9;488;13;4;0;6674;3;0;220;9;5;87;14972;4;23;25;384;609;22;6;34;10782;1;9;19;510;489;20;7;1;10390;6;1;444;13;8;2;9936;6;1;452;12;9;1;5375;6;2;494;9
20.02.18;17:15:00;1;739;15036;0;2;4;6789;6;10;415;10;3;0;4286;6;0;547;13;4;0;6674;3;0;226;10;5;111;14965;4;41;37;384;609;22;6;61;10779;4;16;25;458;435;20;7;2;10390;6;5;464;13;8;2;9936;6;5;463;13;9;2;5374;6;4;513;9
20.02.18;17:10:00;1;933;14974;0;2;9;6789;6;19;410;11;3;1;4286;3;11;505;14;4;0;6674;3;0;225;10;5;128;14955;4;50;45;384;609;22;6;33;10773;4;17;25;506;525;20;7;1;10390;6;4;474;13;8;0;9935;6;4;472;13;9;1;5374;6;3;518;9
20.02.18;17:05:00;1;1582;14885;0;2;7;6788;6;12;421;11;3;2;4286;6;8;527;14;4;0;6674;3;0;221;10;5;134;14945;4;50;50;384;609;22;6;46;10770;1;26;28;359;344;21;7;0;10390;4;5;475;14;8;0;9935;6;0;503;13;9;0;5374;6;0;554;10
20.02.18;17:00:00;1;834;14789;0;2;40;6788;6;64;378;12;3;2;4286;6;8;538;14;4;10;6674;3;10;199;11;5;163;14933;4;67;62;384;609;22;6;62;10767;4;28;28;288;277;21;7;14;10390;3;26;437;14;8;9;9935;3;17;467;14;9;2;5374;4;11;519;10
20.02.18;16:55:00;1;766;14716;0;2;70;6784;4;100;381;12;3;6;4286;6;13;545;14;4;30;6673;3;32;198;11;5;215;14919;4;96;87;384;609;22;6;78;10762;4;38;37;289;277;21;7;53;10389;4;86;416;14;8;50;9934;4;88;420;14;9;6;5374;6;10;552;10
20.02.18;16:50:00;1;1581;14651;0;2;91;6779;4;123;385;12;3;12;4285;6;23;528;14;4;48;6670;3;50;198;11;5;254;14901;4;115;103;384;609;22;6;94;10755;4;60;55;289;277;21;7;64;10384;4;101;416;14;8;61;9930;4;100;436;14;9;12;5373;6;20;535;10
20.02.18;16:45:00;1;800;14518;0;2;120;6771;4;153;385;12;3;51;4284;6;83;515;15;4;76;6666;3;79;199;11;5;301;14880;4;148;121;384;609;22;6;119;10747;4;73;70;289;277;21;7;98;10379;4;132;422;14;8;100;9925;4;129;414;14;9;10;5372;6;15;566;11
20.02.18;16:40:00;1;1199;14448;0;2;153;6761;4;187;392;13;3;83;4281;4;123;504;15;4;107;6660;3;112;227;12;5;360;14854;4;180;154;387;609;22;6;152;10737;4;66;73;288;319;21;7;129;10371;4;165;430;15;8;131;9917;4;164;421;14;9;48;5372;6;67;526;11
20.02.18;16:35:00;1;800;14373;0;2;189;6748;4;226;392;13;3;104;4274;4;148;526;15;4;141;6651;5;146;234;12;5;428;14824;4;204;178;405;609;22;6;257;10724;4;115;172;372;542;21;7;173;10360;4;206;420;15;8;179;9906;4;208;443;14;9;92;5368;4;121;488;12
20.02.18;16:30:00;1;754;14302;0;2;229;6733;4;265;401;13;3;136;4265;4;177;508;16;4;176;6640;5;183;233;12;5;514;14788;4;248;215;412;659;22;6;375;10701;4;173;196;582;575;21;7;220;10346;4;254;442;15;8;219;9892;4;255;441;15;9;115;5360;4;146;516;12
20.02.18;16:25:00;1;1016;14238;0;2;266;6714;4;304;395;14;3;163;4254;4;203;506;16;4;209;6625;5;218;236;12;5;584;14745;4;287;247;409;646;23;6;437;10670;4;214;238;601;574;21;7;263;10327;4;301;451;15;8;264;9873;4;302;469;15;9;136;5351;4;172;539;12
20.02.18;16:20:00;1;713;14169;0;2;310;6692;4;349;402;14;3;189;4240;4;232;504;16;4;247;6608;5;257;240;13;5;661;14696;4;326;279;423;685;23;6;500;10633;4;249;276;590;580;21;7;309;10306;4;351;459;15;8;311;9851;4;352;494;15;9;172;5339;4;203;528;12
20.02.18;16:15:00;1;771;14109;0;2;389;6666;4;433;408;15;3;240;4224;4;284;516;16;4;315;6587;5;328;241;13;5;799;14640;4;402;340;416;693;23;6;592;10591;4;267;289;604;583;22;7;407;10280;4;440;473;16;8;393;9826;4;441;498;15;9;214;5325;4;251;523;13
20.02.18;16:10:00;1;662;14044;0;2;472;6634;4;520;418;15;3;293;4205;4;342;525;17;4;394;6561;5;410;243;13;5;956;14573;4;480;413;423;688;23;6;728;10541;4;385;410;605;584;22;7;501;10247;4;541;472;16;8;501;9793;4;547;485;15;9;267;5308;4;308;534;13
20.02.18;16:05:00;1;645;13986;0;2;527;6595;4;573;413;15;3;327;4180;4;382;526;17;4;443;6529;5;462;246;14;5;1071;14491;4;544;455;432;693;23;6;802;10480;4;407;427;610;589;22;7;553;10205;4;607;479;16;8;565;9752;4;609;475;16;9;301;5285;4;339;544;13
20.02.18;16:00:00;1;799;13929;0;2;559;6551;4;610;420;16;3;349;4153;4;404;530;17;4;474;6491;5;493;244;14;5;1142;14402;4;578;483;431;700;23;6;848;10412;4;429;440;610;586;22;7;639;10159;4;648;489;16;8;601;9705;4;651;484;16;9;321;5260;4;363;540;13
20.02.18;15:55:00;1;2317;13828;0;2;593;6504;4;644;411;16;3;374;4124;4;426;535;17;4;501;6452;5;522;244;14;5;1201;14307;4;610;513;431;697;24;6;895;10341;4;439;456;606;585;22;7;637;10106;4;678;485;16;8;629;9655;4;680;492;16;9;338;5234;4;379;545;14
20.02.18;15:50:00;1;2020;13714;0;2;654;6455;4;706;410;17;3;411;4093;4;464;530;18;4;549;6410;5;572;243;15;5;1295;14207;4;658;544;426;693;24;6;980;10265;4;504;516;606;589;22;7;685;10053;4;743;488;17;8;694;9602;4;743;485;16;9;368;5206;4;413;531;14
20.02.18;15:45:00;1;665;13561;0;2;765;6400;4;823;418;17;3;484;4059;4;539;521;18;4;639;6365;5;666;247;15;5;1458;14099;4;744;627;429;704;24;6;1106;10183;4;567;580;607;586;22;7;811;9996;4;861;484;17;8;806;9544;4;859;479;16;9;431;5175;4;479;534;14
20.02.18;15:40:00;1;667;13494;0;2;955;6336;4;1019;417;18;3;606;4018;4;666;538;18;4;796;6311;5;829;244;15;5;1755;13975;4;904;766;443;704;24;6;1336;10089;4;655;662;609;590;22;7;1024;9928;4;1095;488;17;8;1027;9477;4;1082;482;17;9;552;5139;4;601;542;15
20.02.18;15:35:00;1;677;13432;0;2;1108;6257;4;1176;418;18;3;706;3968;4;772;536;19;4;931;6245;5;969;244;16;5;2018;13828;4;1059;880;433;711;24;6;1538;9977;4;774;780;614;587;22;7;1204;9844;4;1281;487;17;8;1208;9392;4;1282;484;17;9;651;5093;4;712;543;15
20.02.18;15:30:00;1;730;13375;0;2;1223;6165;4;1297;421;19;3;783;3909;4;849;540;19;4;1034;6167;5;1076;244;16;5;2236;13657;4;1176;978;431;705;24;6;1712;9848;4;873;867;614;588;22;7;1366;9743;4;1440;489;17;8;1357;9291;4;1436;492;17;9;738;5039;4;802;546;15
20.02.18;15:25:00;1;512;13315;0;2;1289;6063;4;1362;418;19;3;820;3844;4;889;537;19;4;1096;6082;5;1142;243;16;5;2346;13471;4;1240;1039;434;707;24;6;1807;9705;4;941;942;613;588;22;7;1381;9630;4;1462;492;18;8;1379;9178;4;1450;498;17;9;748;4977;4;812;545;15
20.02.18;15:20:00;1;1203;13271;0;2;1450;5956;4;1532;418;20;3;923;3776;4;997;535;19;4;1220;5990;5;1271;246;17;5;2606;13273;4;1384;1142;429;705;25;6;1989;9553;4;1029;1021;612;590;23;7;1533;9514;4;1609;491;18;8;1517;9064;4;1601;487;17;9;820;4915;4;886;543;16
20.02.18;15:15:00;1;1845;13149;0;2;1757;5835;4;1851;419;20;3;1101;3699;4;1183;552;19;4;1469;5889;5;1530;250;17;5;3059;13055;4;1651;1356;437;712;25;6;2338;9386;4;1211;1195;610;587;22;7;1953;9387;4;2048;487;18;8;1936;8938;4;2034;488;17;9;1050;4847;4;1125;540;16
20.02.18;15:10:00;1;792;13012;0;2;2105;5688;4;2212;426;21;3;1287;3607;4;1381;555;20;4;1761;5766;5;1835;248;17;5;3651;12794;4;1976;1623;438;707;24;6;2792;9187;4;1436;1410;613;592;22;7;2447;9224;4;2560;489;18;8;2425;8775;4;2539;486;17;9;1324;4759;4;1408;543;16
20.02.18;15:05:00;1;1711;12936;0;2;2137;5513;4;2246;419;20;3;1295;3500;4;1390;565;19;4;1815;5620;5;1890;250;16;5;3804;12487;4;2051;1689;441;717;24;6;2918;8953;4;1496;1473;612;591;22;7;2578;9021;4;2703;487;18;8;2579;8574;4;2703;493;17;9;1413;4649;4;1503;539;16
20.02.18;15:00:00;1;444;12827;0;2;1895;5335;4;1991;417;20;3;1198;3392;4;1285;548;19;4;1635;5469;5;1703;248;16;5;3464;12173;4;1870;1538;440;709;24;6;2660;8711;4;1363;1342;617;590;22;7;2228;8807;4;2331;487;17;8;2215;8360;4;2322;493;17;9;1210;4532;4;1292;540;16
20.02.18;14:55:00;1;1775;12790;0;2;1864;5176;4;1962;422;20;3;1184;3292;4;1268;548;19;4;1601;5332;5;1668;247;17;5;3392;11885;4;1813;1502;442;713;24;6;2590;8490;4;1329;1298;617;591;22;7;2149;8620;4;2258;487;17;8;2144;8173;4;2247;490;17;9;1170;4431;4;1249;542;16
20.02.18;14:50:00;1;2638;12618;0;2;1930;5021;4;2031;421;20;3;1224;3193;4;1313;543;19;4;1655;5198;5;1724;248;17;5;3483;11602;4;1884;1547;440;705;24;6;2674;8273;4;1389;1359;612;590;22;7;2275;8441;4;2386;488;17;8;2260;7995;4;2372;492;17;9;1230;4333;4;1315;542;16
20.02.18;14:45:00;1;2282;12398;0;2;2039;4860;4;2150;428;20;3;1317;3091;4;1408;543;19;4;1755;5061;5;1828;247;17;5;3668;11311;4;1975;1632;438;716;24;6;2819;8049;4;1438;1415;614;589;22;7;2403;8252;4;2523;488;17;8;2397;7807;4;2509;491;17;9;1307;4231;4;1392;541;16
20.02.18;14:40:00;1;529;12247;0;2;2273;4690;4;2387;424;20;3;1469;2981;4;1566;534;19;4;1945;4914;5;2025;248;16;5;4029;11003;4;2180;1806;435;711;24;6;3091;7813;4;1594;1567;616;590;22;7;2647;8051;4;2772;485;17;8;2637;7608;4;2757;496;16;9;1436;4122;4;1528;545;16
20.02.18;14:35:00;1;596;12202;0;2;2470;4502;4;2592;421;20;3;1596;2859;4;1697;534;19;4;2122;4753;5;2210;248;16;5;4374;10666;4;2382;1955;439;706;24;6;3358;7555;4;1731;1685;615;592;22;7;2893;7832;4;3026;487;17;8;2880;7389;4;3009;493;16;9;1572;4003;4;1665;541;16
20.02.18;14:30:00;1;598;12152;0;2;2613;4296;4;2743;422;19;3;1699;2727;4;1805;539;19;4;2287;4576;5;2382;249;15;5;4745;10298;4;2593;2115;438;723;23;6;3654;7272;4;1889;1846;616;594;22;7;3200;7591;4;3347;496;16;8;3187;7149;4;3330;493;15;9;1733;3871;4;1843;549;15
20.02.18;14:25:00;1;624;12102;0;2;2188;4078;4;2291;421;18;3;1414;2585;4;1511;540;18;4;1942;4386;5;2022;249;15;5;4195;9900;4;2270;1874;441;716;23;6;3231;6969;4;1661;1635;619;597;21;7;2764;7325;4;2894;494;16;8;2766;6885;4;2895;494;15;9;1517;3728;4;1614;545;15
20.02.18;14:20:00;1;597;12049;0;2;1967;3894;4;2064;420;18;3;1273;2465;4;1360;538;18;4;1739;4222;5;1811;249;14;5;3809;9554;4;2050;1703;442;715;23;6;2918;6703;4;1514;1479;618;595;21;7;2415;7092;4;2533;496;16;8;2414;6651;4;2527;494;15;9;1316;3600;4;1405;549;14